^^
Datos históricos de la estación: Murcia-Puente Tocinos
 
Diario Informe para Febrero 24, 2017 Unidades:  Métrico    Inglés   Ambas
« Anterior Día
Siguiente Día »
Diario Semanal Mensual Anual Configurable
  Actual: Máximo: Mínimo: Media:
Temperatura: 13.9 °C 14.4 °C 13.9 °C 14.2 °C
Punto de rocio: 11.8 °C 11.8 °C 11.2 °C 11.7 °C
Humedad: 87% 87% 81% 85%
Velocidad viento: 3.2km/h 6.4km/h 2.3km/h 3.6km/h
Racha viento: 4.7km/h 11.1km/h - -
VientoWSW - - OSO
Presión: 1010.4 hPa 1010.4 hPa 1010.0 hPa -
Precipitación: 0.0 mm      
Historical Graphs
 
 
Tabla de datos para Febrero 24, 2017
Hora Temperatura Punto de rocio Presión Viento Velocidad viento Racha viento Humedad Intensidad lluvia(por hora) Nubes
00:01 14.3 °C 11.3 °C 1010.4 hPa NNW 3.2 km/h 9.3 km/h 82% 0.0 mm RA
00:06 14.4 °C 11.2 °C 1010.4 hPa NE 3.2 km/h 8.7 km/h 81% 0.0 mm RA
00:07 14.4 °C 11.4 °C 1010.4 hPa NNW 3.2 km/h 7.4 km/h 82% 0.0 mm RA
00:12 14.4 °C 11.4 °C 1010.4 hPa NE 5.8 km/h 11.1 km/h 82% 0.0 mm
00:17 14.4 °C 11.6 °C 1010.0 hPa North 5.8 km/h 9.3 km/h 83% 0.0 mm
00:22 14.4 °C 11.6 °C 1010.0 hPa WNW 6.4 km/h 6.4 km/h 83% 0.0 mm
00:27 14.4 °C 11.6 °C 1010.0 hPa NW 6.4 km/h 6.4 km/h 83% 0.0 mm
00:32 14.4 °C 11.6 °C 1010.0 hPa WNW 2.9 km/h 5.6 km/h 83% 0.0 mm
00:37 14.3 °C 11.4 °C 1010.0 hPa WNW 2.9 km/h 3.7 km/h 83% 0.0 mm
00:42 14.3 °C 11.6 °C 1010.0 hPa WNW 2.9 km/h 3.9 km/h 84% 0.0 mm
00:47 14.3 °C 11.6 °C 1010.4 hPa WNW 2.9 km/h 2.9 km/h 84% 0.0 mm
00:53 14.2 °C 11.7 °C 1010.4 hPa WNW 2.3 km/h 3.9 km/h 85% 0.0 mm
00:58 14.2 °C 11.7 °C 1010.4 hPa NW 2.3 km/h 5.6 km/h 85% 0.0 mm
01:03 14.2 °C 11.7 °C 1010.4 hPa NNW 2.9 km/h 5.6 km/h 85% 0.0 mm
01:08 14.2 °C 11.7 °C 1010.4 hPa NNW 2.9 km/h 7.4 km/h 85% 0.0 mm
01:13 14.1 °C 11.6 °C 1010.4 hPa NW 3.9 km/h 5.6 km/h 85% 0.0 mm
01:18 14.1 °C 11.8 °C 1010.4 hPa WNW 3.9 km/h 7.4 km/h 86% 0.0 mm FEW
01:23 14.1 °C 11.8 °C 1010.4 hPa NW 3.9 km/h 7.4 km/h 86% 0.0 mm FEW
01:28 14.1 °C 11.8 °C 1010.4 hPa WNW 3.9 km/h 7.4 km/h 86% 0.0 mm FEW
01:34 14.1 °C 11.8 °C 1010.0 hPa ENE 4.7 km/h 4.7 km/h 86% 0.0 mm FEW
01:39 14.1 °C 11.8 °C 1010.0 hPa ENE 2.3 km/h 2.3 km/h 86% 0.0 mm FEW
01:44 14.1 °C 11.8 °C 1010.0 hPa WNW 2.3 km/h 7.4 km/h 86% 0.0 mm FEW
01:49 14.1 °C 11.8 °C 1010.4 hPa NW 3.2 km/h 7.4 km/h 86% 0.0 mm FEW
01:54 14.0 °C 11.7 °C 1010.4 hPa NW 3.2 km/h 5.6 km/h 86% 0.0 mm FEW
01:59 13.9 °C 11.8 °C 1010.4 hPa WNW 3.2 km/h 4.7 km/h 87% 0.0 mm FEW
02:04 13.9 °C 11.8 °C 1010.4 hPa West 3.2 km/h 5.6 km/h 87% 0.0 mm FEW
02:09 13.9 °C 11.8 °C 1010.4 hPa WSW 3.2 km/h 7.4 km/h 87% 0.0 mm SCT
02:15 13.9 °C 11.8 °C 1010.4 hPa WSW 3.2 km/h 4.7 km/h 87% 0.0 mm FEW
Murcia-Puente Tocinos, España
Compliments of Weather Underground - 1.5 mb

La estación de MeteoMurcia.com, publica sus datos en los siguientes proyectos:

Meteoclimatic www.awekas.at

W3Counter
Web Analytics